Location: Brantley
(31.5822°N, 86.2569°W)
Time: 13:13:12
(UTC+00:00)

Vanguard 3 - Pass Details

Date: 25 February 2026
Orbit: 507 x 3205 km, 33.4° (Epoch: 17 March)

Event Time Altitude Azimuth Distance (km) Brightness Sun altitude
Rises 21:02:50 0° 264° (W) 6,675 12.7 30.1°
Reaches altitude 10° 21:07:50 10° 266° (W) 5,335 12.4 29.3°
Maximum altitude 21:22:25 82° 354° (N) 1,726 9.2 26.6°
Drops below altitude 10° 21:30:22 10° 83° (E) 3,078 9.7 25.2°
Sets 21:32:32 0° 84° (E) 3,784 10.1 24.8°
